Location: Unnamed
(49.2205°N, 28.4120°E)
Time: 15:28:19
(UTC+03:00)

ISS - Pass Details

Date: 21 April 2026
Orbit: 414 x 424 km, 51.6° (Epoch: 18 May)

Event Time Altitude Azimuth Distance (km) Brightness Sun altitude
Exits shadow 04:08:30 11° 154° (SSE) 1,436 -1.2 -16.9°
Maximum altitude 04:09:32 12° 135° (SE) 1,369 -1.1 -16.8°
Drops below altitude 10° 04:10:57 10° 110° (ESE) 1,501 -0.6 -16.6°
Sets 04:14:04 0° 79° (E) 2,374 1.1 -16.2°
